Weather History for KCQT - September, 2014

Change the Weather History Date:

Friday, September 19, 2014

  Actual Average Record
Temperature  
Mean Temperature 75 °F 73 °F  
Max Temperature 82 °F 83 °F 104 °F (1939)
Min Temperature 67 °F 63 °F 49 °F (1907)
Degree Days  
Heating Degree Days 0 0  
Month to date heating degree days 0 0  
Since 1 July heating degree days 0 0  
Cooling Degree Days 10 8  
Month to date cooling degree days 266 165  
Year to date cooling degree days 1343 999  
Growing Degree Days 23 (Base 50)    
Moisture  
Dew Point 61 °F    
Average Humidity 69    
Maximum Humidity 87    
Minimum Humidity 51    
Precipitation  
Precipitation 0.00 in 0.01 in 0.27 in (1989)
Month to date precipitation 0.01 0.10  
Year to date precipitation 5.16 10.76  
Since 1 July precipitation 0.05 0.15  
Sea Level Pressure  
Sea Level Pressure 29.86 in    
Wind  
Wind Speed 2 mph (West)    
Max Wind Speed 9 mph    
Max Gust Speed 15 mph    
Visibility 10 miles    
Events      
T = Trace of Precipitation, MM = Missing Value Source: NWS Daily Summary

Daily Weather History Graph

Daily Weather History Graph

Search for Another Location

Airport or City:

Trip Planner

Search our weather history database for the weather conditions in past years. The results will help you decide how hot, cold, wet, or windy it might be!

Date:

Astronomy

Sep. 19, 2014 Rise Set
Actual Time 6:39 AM PDT 6:53 PM PDT
Civil Twilight 6:14 AM PDT 7:18 PM PDT
Nautical Twilight 5:44 AM PDT 7:48 PM PDT
Astronomical Twilight 5:15 AM PDT 8:17 PM PDT
Moon 2:37 AM PDT (9/19) 4:17 PM PDT (9/19)
Length of Visible Light 13h 04m
Length of Day
12h 14m
Waning Crescent, 17% of the Moon is Illuminated
Sep 19
Waning Crescent
Sep 23
New
Oct 1
First Quarter
Oct 8
Full
Oct 15
Last Quarter

Hourly Weather History & Observations

Time (PDT) Temp. Heat Index Dew Point Humidity Pressure Visibility Wind Dir Wind Speed Gust Speed Precip Events Conditions
12:47 AM 69.1 °F - 62.1 °F 78% 29.85 in 10.0 mi Calm Calm - N/A   Clear
1:47 AM 68.0 °F - 60.1 °F 76% 29.86 in 10.0 mi Calm Calm - N/A   Scattered Clouds
1:53 AM 68.0 °F - 60.1 °F 76% 29.87 in 10.0 mi Calm Calm - N/A   Mostly Cloudy
2:09 AM 68.0 °F - 61.0 °F 78% 29.87 in 10.0 mi Calm Calm - N/A   Scattered Clouds
2:47 AM 66.9 °F - 62.1 °F 84% 29.86 in 10.0 mi Calm Calm - N/A   Scattered Clouds
2:57 AM 66.9 °F - 62.1 °F 84% 29.87 in 10.0 mi Calm Calm - N/A   Mostly Cloudy
3:47 AM 66.9 °F - 62.1 °F 84% 29.87 in 10.0 mi West 3.5 mph - N/A   Overcast
4:47 AM 68.0 °F - 62.1 °F 81% 29.86 in 10.0 mi Calm Calm - N/A   Overcast
5:47 AM 69.1 °F - 62.1 °F 78% 29.86 in 10.0 mi Calm Calm - N/A   Overcast
6:47 AM 70.0 °F - 62.1 °F 76% 29.88 in 10.0 mi Calm Calm - N/A   Overcast
7:47 AM 70.0 °F - 62.1 °F 76% 29.89 in 10.0 mi Calm Calm - N/A   Overcast
8:47 AM 71.1 °F - 62.1 °F 73% 29.90 in 10.0 mi Calm Calm - N/A   Overcast
8:53 AM 71.1 °F - 62.1 °F 73% 29.91 in 10.0 mi Calm Calm - N/A   Overcast
9:47 AM 73.0 °F - 62.1 °F 68% 29.90 in 10.0 mi Calm Calm - N/A   Overcast
10:47 AM 75.9 °F - 60.1 °F 58% 29.89 in 10.0 mi ESE 5.8 mph - N/A   Mostly Cloudy
11:47 AM 80.1 °F 81.1 °F 61.0 °F 52% 29.88 in 10.0 mi Variable 3.5 mph - N/A   Mostly Cloudy
12:47 PM 80.1 °F 80.9 °F 60.1 °F 50% 29.86 in 10.0 mi Variable 3.5 mph - N/A   Mostly Cloudy
1:47 PM 79.0 °F - 62.1 °F 56% 29.84 in 10.0 mi Variable 5.8 mph - N/A   Clear
2:47 PM 77.0 °F - 61.0 °F 58% 29.83 in 10.0 mi West 6.9 mph - N/A   Clear
3:47 PM 78.1 °F - 61.0 °F 56% 29.82 in 10.0 mi Variable 4.6 mph - N/A   Clear
4:47 PM 75.0 °F - 60.1 °F 60% 29.83 in 10.0 mi Variable 4.6 mph - N/A   Clear
5:47 PM 73.9 °F - 60.1 °F 62% 29.83 in 10.0 mi Variable 4.6 mph - N/A   Clear
6:47 PM 72.0 °F - 60.1 °F 66% 29.83 in 10.0 mi Variable 3.5 mph - N/A   Clear
7:47 PM 71.1 °F - 61.0 °F 70% 29.84 in 10.0 mi Calm Calm - N/A   Clear
8:47 PM 70.0 °F - 61.0 °F 73% 29.86 in 10.0 mi West 3.5 mph - N/A   Clear
9:47 PM 69.1 °F - 62.1 °F 78% 29.87 in 10.0 mi Calm Calm - N/A   Clear
10:47 PM 68.0 °F - 62.1 °F 81% 29.87 in 10.0 mi Calm Calm - N/A   Clear
11:47 PM 66.9 °F - 61.0 °F 81% 29.88 in 10.0 mi Calm Calm - N/A   Clear